Regional Weather Roundup
Issued by NWS

Home | Current Version | Previous Version | Text Only | Print | Product List | Glossary On
Versions: 1 2 3 4 5 6 7 8 9 10 11 12 13 14 15 16 17 18 19 20 21 22 23 24 25 26 27 28 29 30 31 32 33 34 35 36 37 38 39 40 41 42 43 44 45 46 47 48 49 50
000
ASUS45 KABQ 240810
RWRNM
NEW MEXICO REGIONAL WEATHER ROUNDUP
NATIONAL WEATHER SERVICE ALBUQUERQUE NM
100 AM MST SAT FEB 24 2018

NOTE: "FAIR" MEANS FEW OR NO CLOUDS BELOW 12,000 FEET AGL WITH NO
       SIGNIFICANT WEATHER OR OBSTRUCTIONS TO VISION.

      THIS PRODUCT IS RELEASED AS TWO VERSIONS.  ONE VERSION NEAR
      THE TOP OF THE HOUR CONTAINING PRELIMINARY DATA FROM ALBUQUERQUE
      AND OTHER STATIONS.  A FINAL VERSION WITH ADDITIONAL DATA IS
      ISSUED ABOUT 10 MINUTES AFTER THE HOUR.

NMZ501-503-504-510>518-240900-
NORTHWEST PLATEAU/NORTHCENTRAL MOUNTAINS

CITY           SKY/WX    TMP DP  RH WIND       PRES   REMARKS
FARMINGTON     FAIR      21  17  84 SW10      29.96S WCI  10
LOS ALAMOS     CLOUDY    28  15  59 S8G16     29.90S WCI  19
SANTA FE       CLOUDY    30  17  58 VRB5      29.92R WCI  25
ANGEL FIRE     LGT SNOW  21  15  77 S10G17    29.85S WCI  10

$$
NMZ402-403-502-505>509-240900-
WESTCENTRAL MOUNTAINS/SOUTHWEST MOUNTAINS

CITY           SKY/WX    TMP DP  RH WIND       PRES   REMARKS
GALLUP         FAIR      19  16  88 SW6       29.99R WCI  11
GRANTS         FLURRIES  25  18  76 NW10      29.98S WCI  15
SILVER CITY    MOCLDY    33  20  59 NW16      29.98R WCI  22

$$
NMZ407-409-411-412-240900-
SOUTHERN DESERTS

CITY           SKY/WX    TMP DP  RH WIND       PRES   REMARKS
DEMING         FAIR      41  21  44 W21       29.98R
LAS CRUCES     FAIR      43  15  33 W13       29.95S
HOLLOMAN AFB   FAIR      43  14  31 W13       29.94S
ALAMOGORDO     FAIR      48   9  20 SW6       29.94R
T OR C         FAIR      45  14  28 W13       29.93R

$$
NMZ519>523-240900-
CENTRAL VALLEYS/CENTRAL HIGHLANDS

CITY           SKY/WX    TMP DP  RH WIND       PRES   REMARKS
ALBUQUERQUE    MOCLDY    35  20  54 W3        29.96S
MORIARTY ARPT  FAIR      32  18  55 NW7G18    29.93S WCI  26
CLINES CORNERS FAIR      25  15  66 W28G40    29.87  WCI   9
BELEN          MOCLDY    34  19  53 N7G16     29.97S WCI  28
SOCORRO        FAIR      38  15  38 W12       29.96R WCI  31

$$
NMZ524>526-539-540-240900-
SOUTHCENTRAL MOUNTAINS

CITY           SKY/WX    TMP DP  RH WIND       PRES   REMARKS
RUIDOSO        FAIR      39   7  26 W29G36    29.89R WCI  28

$$
NMZ527>531-240900-
NORTHEAST HIGHLANDS/NORTHEAST PLAINS

CITY           SKY/WX    TMP DP  RH WIND       PRES   REMARKS
LAS VEGAS      FAIR      32   7  35 SW15      29.81S WCI  22
RATON          FAIR      27  12  53 CALM      29.78S
CLAYTON        FOG       30  30 100 NE9       29.83S VSB 1/4 WCI  22

$$
NMZ532>537-240900-
EASTCENTRAL PLAINS

CITY           SKY/WX    TMP DP  RH WIND       PRES   REMARKS
SANTA ROSA     FAIR      38  11  33 W10       29.85R WCI  31
TUCUMCARI      FAIR      43   9  24 SW14      29.77F
CANNON AFB     FAIR      42  42 100 S14       29.85S
CLOVIS AIRPORT CLOUDY    43  43 100 S22       29.85S FOG

$$
NMZ028-029-538-240900-
SOUTHEAST PLAINS

CITY           SKY/WX    TMP DP  RH WIND       PRES   REMARKS
ROSWELL        FAIR      43  12  28 S9        29.84S
ARTESIA        FAIR      41  10  28 S10       29.86S
CARLSBAD       FAIR      44  26  49 E6        29.86F
HOBBS          CLOUDY    48  45  87 SW15      29.90F


$$




USA.gov is the U.S. government's official web portal to all federal, state and local government web resources and services.